Weather History for KCNM - April, 2013

Change the Weather History Date:

Friday, April 12, 2013

  Actual Average Record
Temperature  
Mean Temperature 64 °F -  
Max Temperature 79 °F 78 °F 91 °F (1964)
Min Temperature 48 °F 47 °F 30 °F (1997)
Degree Days  
Heating Degree Days 2    
Growing Degree Days 14 (Base 50)    
Moisture  
Dew Point 19 °F    
Average Humidity 19    
Maximum Humidity 27    
Minimum Humidity 10    
Precipitation  
Precipitation 0.00 in - - ()
Sea Level Pressure  
Sea Level Pressure 29.73 in    
Wind  
Wind Speed 6 mph (NNE)    
Max Wind Speed 18 mph    
Max Gust Speed 22 mph    
Visibility 10 miles    
Events      
Averages and records for this station are not official NWS values.
T = Trace of Precipitation, MM = Missing Value Source: NWS Daily Summary

Daily Weather History Graph

Daily Weather History Graph

Search for Another Location

Airport or City:

Trip Planner

Search our weather history database for the weather conditions in past years. The results will help you decide how hot, cold, wet, or windy it might be!

Date:

Astronomy

Apr. 12, 2013 Rise Set
Actual Time 6:31 AM MDT 7:24 PM MDT
Civil Twilight 6:06 AM MDT 7:49 PM MDT
Nautical Twilight 5:36 AM MDT 8:19 PM MDT
Astronomical Twilight 5:06 AM MDT 8:50 PM MDT
Moon 7:50 AM MDT (4/12) 9:49 PM MDT (4/12)
Length of Visible Light 13h 43m
Length of Day
12h 53m
Waxing Crescent, 5% of the Moon is Illuminated
Apr 12
Waxing Crescent
Apr 18
First Quarter
Apr 25
Full
May 2
Last Quarter
May 9
New

Hourly Weather History & Observations

Time (MDT) Temp. Dew Point Humidity Pressure Visibility Wind Dir Wind Speed Gust Speed Precip Events Conditions
12:53 AM 55.9 °F 14.0 °F 19% 29.70 in 10.0 mi SSE 4.6 mph - N/A   Clear
1:53 AM 51.1 °F 14.0 °F 23% 29.69 in 10.0 mi South 5.8 mph - N/A   Clear
2:53 AM 48.9 °F 14.0 °F 25% 29.69 in 10.0 mi Calm Calm - N/A   Clear
3:53 AM 50.0 °F 15.1 °F 25% 29.70 in 10.0 mi ENE 6.9 mph - N/A   Clear
4:53 AM 48.0 °F 15.1 °F 27% 29.73 in 10.0 mi West 3.5 mph - N/A   Clear
5:53 AM 53.1 °F 15.1 °F 22% 29.73 in 10.0 mi NNW 5.8 mph - N/A   Clear
6:53 AM 55.9 °F 14.0 °F 19% 29.75 in 10.0 mi NNW 6.9 mph - N/A   Clear
7:53 AM 60.1 °F 14.0 °F 16% 29.78 in 10.0 mi NW 15.0 mph - N/A   Clear
8:53 AM 63.0 °F 14.0 °F 15% 29.82 in 10.0 mi NNW 18.4 mph - N/A   Clear
9:53 AM 62.1 °F 21.9 °F 21% 29.82 in 10.0 mi NNW 15.0 mph - N/A   Clear
10:53 AM 66.0 °F 25.0 °F 21% 29.81 in 10.0 mi North 15.0 mph 21.9 mph N/A   Clear
11:53 AM 69.1 °F 28.9 °F 22% 29.79 in 10.0 mi North 4.6 mph - N/A   Clear
12:53 PM 71.1 °F 27.0 °F 19% 29.77 in 10.0 mi NE 6.9 mph - N/A   Clear
1:53 PM 72.0 °F 25.0 °F 17% 29.75 in 10.0 mi ENE 5.8 mph - N/A   Clear
2:53 PM 73.0 °F 24.1 °F 16% 29.72 in 10.0 mi Variable 4.6 mph - N/A   Clear
3:53 PM 77.0 °F 21.9 °F 13% 29.68 in 10.0 mi Variable 6.9 mph - N/A   Clear
4:53 PM 78.1 °F 19.9 °F 11% 29.67 in 10.0 mi Variable 3.5 mph - N/A   Clear
5:53 PM 79.0 °F 17.1 °F 10% 29.65 in 10.0 mi ENE 8.1 mph - N/A   Clear
6:53 PM 75.0 °F 18.0 °F 12% 29.65 in 10.0 mi NNE 10.4 mph - N/A   Clear
7:53 PM 68.0 °F 18.0 °F 15% 29.67 in 10.0 mi NNE 4.6 mph - N/A   Clear
8:53 PM 64.0 °F 18.0 °F 17% 29.69 in 10.0 mi North 6.9 mph - N/A   Clear
9:53 PM 55.9 °F 17.1 °F 22% 29.73 in 10.0 mi Calm Calm - N/A   Clear
10:53 PM 57.0 °F 18.0 °F 22% 29.73 in 10.0 mi SE 8.1 mph - N/A   Clear
11:53 PM 53.1 °F 17.1 °F 24% 29.75 in 10.0 mi Calm Calm - N/A   Clear